TimeEDT,TemperatureF,Dew PointF,Humidity,Sea Level PressureIn,VisibilityMPH,Wind Direction,Wind SpeedMPH,Gust SpeedMPH,PrecipitationIn,Events,Conditions,WindDirDegrees,DateUTC
12:53 AM,79.0,72.0,79,29.93,10.0,SSW,8.1,-,N/A,,Partly Cloudy,210,2013-06-26 04:53:00
1:53 AM,80.1,66.9,64,29.94,10.0,WNW,20.7,28.8,N/A,,Mostly Cloudy,290,2013-06-26 05:53:00
2:07 AM,77.0,64.4,65,29.95,10.0,West,19.6,29.9,0.00,Rain,Light Rain,260,2013-06-26 06:07:00
2:53 AM,72.0,66.0,81,29.92,10.0,SW,4.6,-,0.00,Rain,Light Rain,230,2013-06-26 06:53:00
3:53 AM,72.0,66.0,81,29.94,10.0,SSW,4.6,-,0.00,Thunderstorm,Thunderstorm,210,2013-06-26 07:53:00
4:53 AM,69.1,68.0,96,29.95,3.0,Calm,Calm,-,0.08,Rain-Thunderstorm,Rain,0,2013-06-26 08:53:00
4:58 AM,69.8,66.2,88,29.96,2.5,Calm,Calm,-,0.01,Rain,Rain,0,2013-06-26 08:58:00
5:10 AM,69.8,68.0,94,29.95,4.0,SSE,3.5,-,0.04,Rain,Rain,150,2013-06-26 09:10:00
5:53 AM,69.1,68.0,96,29.95,9.0,SSW,4.6,-,0.07,Rain,Light Rain,210,2013-06-26 09:53:00
6:02 AM,69.8,68.0,94,29.97,7.0,South,3.5,-,0.00,Rain,Light Rain,170,2013-06-26 10:02:00
6:29 AM,68.0,68.0,100,29.95,5.0,South,3.5,-,0.03,Rain,Light Rain,170,2013-06-26 10:29:00
6:53 AM,68.0,66.9,96,29.91,6.0,SE,3.5,-,0.03,Rain,Light Rain,140,2013-06-26 10:53:00
7:53 AM,69.1,68.0,96,29.91,7.0,South,4.6,-,0.00,,Scattered Clouds,170,2013-06-26 11:53:00
8:53 AM,70.0,68.0,93,29.93,8.0,South,3.5,-,N/A,,Scattered Clouds,180,2013-06-26 12:53:00
9:53 AM,72.0,68.0,87,29.95,10.0,SSW,5.8,-,N/A,,Mostly Cloudy,200,2013-06-26 13:53:00
10:53 AM,75.0,69.1,82,29.93,10.0,SSW,6.9,-,N/A,,Clear,210,2013-06-26 14:53:00
11:53 AM,78.1,71.1,79,29.92,10.0,SSW,8.1,-,N/A,,Clear,210,2013-06-26 15:53:00
12:53 PM,81.0,71.1,72,29.91,10.0,SSW,10.4,-,N/A,,Clear,200,2013-06-26 16:53:00
1:53 PM,84.0,73.0,69,29.88,10.0,SW,9.2,-,N/A,,Clear,220,2013-06-26 17:53:00
2:53 PM,84.0,73.0,69,29.86,10.0,SSW,15.0,18.4,N/A,,Mostly Cloudy,200,2013-06-26 18:53:00
3:53 PM,84.0,73.0,69,29.83,10.0,South,10.4,-,N/A,,Scattered Clouds,190,2013-06-26 19:53:00
4:53 PM,80.1,73.9,81,29.82,6.0,South,9.2,-,0.00,Rain-Thunderstorm,Light Thunderstorms and Rain,190,2013-06-26 20:53:00
5:05 PM,77.0,73.4,89,29.85,1.5,SSW,17.3,21.9,0.12,Rain-Thunderstorm,Thunderstorms and Rain,200,2013-06-26 21:05:00
5:46 PM,69.8,68.0,94,29.86,4.0,Calm,Calm,-,0.58,Rain-Thunderstorm,Thunderstorms and Rain,0,2013-06-26 21:46:00
5:53 PM,70.0,68.0,93,29.86,4.0,WSW,4.6,-,0.60,Rain-Thunderstorm,Thunderstorms and Rain,240,2013-06-26 21:53:00
6:53 PM,70.0,69.1,97,29.82,5.0,SSW,3.5,-,0.06,Rain,Light Rain,210,2013-06-26 22:53:00
7:32 PM,69.8,69.8,100,29.84,7.0,SSW,6.9,-,0.04,Rain,Light Rain,210,2013-06-26 23:32:00
7:40 PM,69.8,69.8,100,29.84,6.0,South,8.1,-,0.04,Rain,Light Rain,190,2013-06-26 23:40:00
7:53 PM,70.0,70.0,100,29.82,7.0,South,8.1,-,0.05,Rain,Light Rain,180,2013-06-26 23:53:00
8:05 PM,69.8,69.8,100,29.81,8.0,SE,6.9,-,0.01,Rain,Light Rain,140,2013-06-27 00:05:00
8:38 PM,69.8,69.8,100,29.82,10.0,SSW,10.4,-,0.02,Rain-Thunderstorm,Light Thunderstorms and Rain,200,2013-06-27 00:38:00
8:53 PM,69.1,68.0,96,29.80,10.0,South,9.2,-,0.02,Rain-Thunderstorm,Light Thunderstorms and Rain,180,2013-06-27 00:53:00
9:53 PM,69.1,68.0,96,29.80,9.0,Calm,Calm,-,0.04,Rain-Thunderstorm,Light Thunderstorms and Rain,0,2013-06-27 01:53:00
10:49 PM,68.0,68.0,100,29.82,10.0,SSW,4.6,-,0.01,Rain,Light Rain,210,2013-06-27 02:49:00
10:50 PM,68.0,68.0,100,29.81,10.0,SSW,4.6,-,0.01,Rain,Light Rain,210,2013-06-27 02:50:00
11:53 PM,68.0,66.9,96,29.81,10.0,South,3.5,-,0.01,,Scattered Clouds,190,2013-06-27 03:53:00